Morris, MN

1:51 PM CDT on September 27, 2016 (GMT -0500)
Morris Municipal

Weather History for KMOX - November, 2012

Change the Weather History Date:

Tuesday, November 27, 2012

  Actual Average Record
Temperature  
Mean Temperature 24 °F -  
Max Temperature 35 °F 31 °F 53 °F (1998)
Min Temperature 12 °F 16 °F -11 °F (2014)
Degree Days  
Heating Degree Days 42    
Moisture  
Dew Point 19 °F    
Average Humidity 76    
Maximum Humidity 93    
Minimum Humidity 60    
Precipitation  
Precipitation 0.00 in - - ()
Sea Level Pressure  
Sea Level Pressure 30.15 in    
Wind  
Wind Speed 8 mph (West)    
Max Wind Speed 15 mph    
Max Gust Speed 18 mph    
Visibility 10 miles    
Events      
Averages and records for this station are not official NWS values.
T = Trace of Precipitation, MM = Missing Value Source: NWS Daily Summary

Daily Weather History Graph

Daily Weather History Graph

Search for Another Location

Airport or City:

Trip Planner

Search our weather history database for the weather conditions in past years. The results will help you decide how hot, cold, wet, or windy it might be!

Date:

Astronomy

Nov. 27, 2012 Rise Set
Actual Time 7:39 AM CST 4:43 PM CST
Civil Twilight 7:06 AM CST 5:16 PM CST
Nautical Twilight 6:29 AM CST 5:53 PM CST
Astronomical Twilight 5:53 AM CST 6:29 PM CST
Moon 4:16 PM CST 6:44 AM CST
Length of Visible Light 10h 10m
Length of Day
9h 03m
Waxing Gibbous, 99% of the Moon is Illuminated
Nov 27
Waxing Gibbous
Nov 28
Full
Dec 6
Last Quarter
Dec 13
New
Dec 19
First Quarter

Hourly Weather History & Observations

Time (CST) Temp. Windchill Dew Point Humidity Pressure Visibility Wind Dir Wind Speed Gust Speed Precip Events Conditions
12:08 AM 12.2 °F 1.7 °F 8.6 °F 85% 30.25 in 10.0 mi SSE 6.9 mph - N/A   Clear
12:28 AM 12.2 °F 1.7 °F 8.6 °F 85% 30.24 in 10.0 mi SSE 6.9 mph - N/A   Clear
12:48 AM 15.8 °F 7.2 °F 8.6 °F 73% 30.23 in 10.0 mi SSE 5.8 mph - N/A   Clear
1:08 AM 15.8 °F 7.2 °F 10.4 °F 79% 30.22 in 10.0 mi SSE 5.8 mph - N/A   Clear
1:48 AM 15.8 °F 7.2 °F 10.4 °F 79% 30.21 in 10.0 mi SSE 5.8 mph - N/A   Clear
2:08 AM 17.6 °F 8.2 °F 10.4 °F 73% 30.20 in 10.0 mi SSE 6.9 mph - N/A   Clear
2:28 AM 17.6 °F 9.3 °F 10.4 °F 73% 30.20 in 10.0 mi SE 5.8 mph - N/A   Clear
2:48 AM 17.6 °F 8.2 °F 12.2 °F 79% 30.19 in 10.0 mi SSE 6.9 mph - N/A   Clear
3:08 AM 17.6 °F 7.3 °F 12.2 °F 79% 30.19 in 10.0 mi SSE 8.1 mph - N/A   Clear
3:28 AM 17.6 °F 7.3 °F 12.2 °F 79% 30.18 in 10.0 mi South 8.1 mph - N/A   Clear
3:48 AM 17.6 °F 7.3 °F 12.2 °F 79% 30.16 in 10.0 mi SSE 8.1 mph - N/A   Clear
4:08 AM 17.6 °F 6.4 °F 12.2 °F 79% 30.16 in 10.0 mi SSE 9.2 mph - N/A   Clear
4:28 AM 15.8 °F 5.1 °F 12.2 °F 86% 30.15 in 10.0 mi SSE 8.1 mph - N/A   Clear
4:48 AM 15.8 °F 4.2 °F 10.4 °F 79% 30.14 in 10.0 mi SSE 9.2 mph - N/A   Clear
5:08 AM 15.8 °F 4.2 °F 10.4 °F 79% 30.13 in 10.0 mi SSE 9.2 mph - N/A   Clear
5:28 AM 15.8 °F 3.4 °F 12.2 °F 86% 30.12 in 10.0 mi South 10.4 mph - N/A   Clear
5:48 AM 15.8 °F 3.4 °F 12.2 °F 86% 30.12 in 10.0 mi SSE 10.4 mph - N/A   Clear
6:28 AM 19.4 °F 8.6 °F 15.8 °F 86% 30.11 in 10.0 mi South 9.2 mph - N/A   Overcast
6:48 AM 19.4 °F 8.6 °F 15.8 °F 86% 30.10 in 10.0 mi South 9.2 mph - N/A   Overcast
7:08 AM 19.4 °F 9.5 °F 15.8 °F 86% 30.10 in 10.0 mi South 8.1 mph - N/A   Scattered Clouds
7:28 AM 19.4 °F 10.4 °F 15.8 °F 86% 30.10 in 10.0 mi South 6.9 mph - N/A   Clear
7:48 AM 19.4 °F 11.5 °F 17.6 °F 93% 30.10 in 10.0 mi South 5.8 mph - N/A   Mostly Cloudy
8:08 AM 21.2 °F 13.6 °F 17.6 °F 86% 30.10 in 10.0 mi South 5.8 mph - N/A   Overcast
8:28 AM 23.0 °F 18.4 °F 19.4 °F 86% 30.10 in 10.0 mi South 3.5 mph - N/A   Overcast
8:48 AM 24.8 °F 20.5 °F 19.4 °F 80% 30.11 in 10.0 mi SSW 3.5 mph - N/A   Overcast
9:28 AM 26.6 °F 20.0 °F 19.4 °F 74% 30.10 in 10.0 mi SSW 5.8 mph - N/A   Scattered Clouds
9:48 AM 28.4 °F 24.6 °F 21.2 °F 74% 30.10 in 10.0 mi SSW 3.5 mph - N/A   Clear
10:08 AM 30.2 °F 22.6 °F 21.2 °F 69% 30.09 in 10.0 mi WSW 8.1 mph - N/A   Clear
10:28 AM 30.2 °F 22.6 °F 21.2 °F 69% 30.09 in 10.0 mi West 8.1 mph - N/A   Clear
10:48 AM 32.0 °F 25.6 °F 23.0 °F 69% 30.09 in 10.0 mi West 6.9 mph - N/A   Clear
11:08 AM 33.8 °F 27.0 °F 23.0 °F 65% 30.09 in 10.0 mi West 8.1 mph - N/A   Clear
11:28 AM 33.8 °F 26.4 °F 24.8 °F 70% 30.09 in 10.0 mi WNW 9.2 mph - N/A   Clear
11:48 AM 35.6 °F 29.9 °F 24.8 °F 65% 30.08 in 10.0 mi NW 6.9 mph - N/A   Clear
12:08 PM 35.6 °F 28.6 °F 24.8 °F 65% 30.08 in 10.0 mi NW 9.2 mph - N/A   Clear
12:28 PM 35.6 °F 28.6 °F 24.8 °F 65% 30.08 in 10.0 mi NW 9.2 mph - N/A   Clear
12:48 PM 35.6 °F 28.0 °F 24.8 °F 65% 30.08 in 10.0 mi NW 10.4 mph - N/A   Clear
1:08 PM 35.6 °F 28.6 °F 24.8 °F 65% 30.07 in 10.0 mi NW 9.2 mph 16.1 mph N/A   Clear
1:28 PM 35.6 °F 27.1 °F 24.8 °F 65% 30.08 in 10.0 mi NW 12.7 mph - N/A   Clear
1:48 PM 35.6 °F 27.1 °F 24.8 °F 65% 30.07 in 10.0 mi NW 12.7 mph 18.4 mph N/A   Clear
2:08 PM 35.6 °F 27.1 °F 24.8 °F 65% 30.08 in 10.0 mi NW 12.7 mph 17.3 mph N/A   Clear
2:28 PM 35.6 °F 26.6 °F 23.0 °F 60% 30.08 in 10.0 mi NNW 13.8 mph - N/A   Clear
2:48 PM 35.6 °F 26.6 °F 23.0 °F 60% 30.09 in 10.0 mi NNW 13.8 mph 18.4 mph N/A   Clear
3:08 PM 35.6 °F 27.1 °F 23.0 °F 60% 30.10 in 10.0 mi NW 12.7 mph 16.1 mph N/A   Clear
3:48 PM 33.8 °F 23.9 °F 21.2 °F 60% 30.12 in 10.0 mi NNW 15.0 mph - N/A   Clear
4:08 PM 32.0 °F 23.6 °F 21.2 °F 64% 30.12 in 10.0 mi NNW 10.4 mph - N/A   Clear
4:28 PM 30.2 °F 20.8 °F 21.2 °F 69% 30.13 in 10.0 mi NNW 11.5 mph - N/A   Clear
4:48 PM 28.4 °F 19.1 °F 21.2 °F 74% 30.14 in 10.0 mi NNW 10.4 mph - N/A   Clear
5:08 PM 26.6 °F 16.8 °F 21.2 °F 80% 30.15 in 10.0 mi NNW 10.4 mph - N/A   Clear
5:28 PM 26.6 °F 16.8 °F 21.2 °F 80% 30.15 in 10.0 mi NNW 10.4 mph - N/A   Clear
5:48 PM 26.6 °F 17.5 °F 19.4 °F 74% 30.16 in 10.0 mi NNW 9.2 mph - N/A   Clear
6:08 PM 26.6 °F 16.8 °F 21.2 °F 80% 30.17 in 10.0 mi NNW 10.4 mph - N/A   Mostly Cloudy
6:48 PM 26.6 °F 15.7 °F 21.2 °F 80% 30.18 in 10.0 mi NNW 12.7 mph - N/A   Mostly Cloudy
7:08 PM 26.6 °F 15.2 °F 21.2 °F 80% 30.19 in 10.0 mi NNW 13.8 mph - N/A   Overcast
7:28 PM 26.6 °F 16.2 °F 21.2 °F 80% 30.19 in 10.0 mi NNW 11.5 mph - N/A   Overcast
7:48 PM 26.6 °F 16.8 °F 21.2 °F 80% 30.20 in 10.0 mi North 10.4 mph - N/A   Overcast
8:08 PM 26.6 °F 17.5 °F 21.2 °F 80% 30.20 in 10.0 mi North 9.2 mph - N/A   Overcast
8:28 PM 26.6 °F 17.5 °F 21.2 °F 80% 30.21 in 10.0 mi North 9.2 mph - N/A   Overcast
8:48 PM 26.6 °F 20.0 °F 21.2 °F 80% 30.22 in 10.0 mi North 5.8 mph - N/A   Overcast
9:08 PM 26.6 °F 20.0 °F 21.2 °F 80% 30.23 in 10.0 mi North 5.8 mph - N/A   Overcast
9:28 PM 26.6 °F 21.2 °F 21.2 °F 80% 30.23 in 10.0 mi NNW 4.6 mph - N/A   Overcast
9:48 PM 26.6 °F 19.1 °F 21.2 °F 80% 30.23 in 10.0 mi NNW 6.9 mph - N/A   Overcast
10:08 PM 26.6 °F 20.0 °F 21.2 °F 80% 30.24 in 10.0 mi NNW 5.8 mph - N/A   Overcast
10:28 PM 26.6 °F 22.6 °F 21.2 °F 80% 30.24 in 10.0 mi NW 3.5 mph - N/A   Overcast
10:48 PM 26.6 °F 22.6 °F 21.2 °F 80% 30.24 in 10.0 mi NW 3.5 mph - N/A   Overcast
11:08 PM 26.6 °F 22.6 °F 21.2 °F 80% 30.25 in 10.0 mi WNW 3.5 mph - N/A   Overcast
11:28 PM 26.6 °F 21.2 °F 21.2 °F 80% 30.25 in 10.0 mi West 4.6 mph - N/A   Overcast
11:48 PM 26.6 °F 21.2 °F 21.2 °F 80% 30.25 in 10.0 mi West 4.6 mph - N/A   Overcast